Location: ??????
(33.3472°N, 35.4764°E)
Time: 19:23:10
(UTC+00:00)

IDEFIX/ARIANE 42P - Pass Details

Date: 21 August 2019
Orbit: 786 x 802 km, 98.3° (Epoch: 19 October)

Event Time Altitude Azimuth Distance (km) Brightness Sun altitude
Rises 00:51:12 0° 21° (NNE) 3,297 6.7 -25.8°
Reaches altitude 10° 00:53:41 10° 29° (NNE) 2,366 5.9 -25.4°
Maximum altitude 00:58:34 40° 99° (E) 1,164 3.7 -24.6°
Enters shadow 01:02:16 17° 161° (SSE) 1,947 4.4 -23.9°
